TimeEDT,TemperatureF,Dew PointF,Humidity,Sea Level PressureIn,VisibilityMPH,Wind Direction,Wind SpeedMPH,Gust SpeedMPH,PrecipitationIn,Events,Conditions,WindDirDegrees,DateUTC
12:15 AM,61.9,60.1,94,29.80,4.0,Calm,Calm,-,N/A,,Mostly Cloudy,0,2013-06-30 04:15:00
12:35 AM,61.9,60.3,94,29.80,10.0,Calm,Calm,-,N/A,,Mostly Cloudy,0,2013-06-30 04:35:00
12:55 AM,61.7,59.2,91,29.79,10.0,Calm,Calm,-,N/A,,Scattered Clouds,0,2013-06-30 04:55:00
1:15 AM,61.2,59.2,93,29.79,10.0,Calm,Calm,-,N/A,,Clear,0,2013-06-30 05:15:00
1:35 AM,61.3,59.0,92,29.79,10.0,Calm,Calm,-,N/A,,Clear,0,2013-06-30 05:35:00
1:55 AM,60.4,58.8,94,29.79,10.0,Calm,Calm,-,N/A,,Clear,0,2013-06-30 05:55:00
2:15 AM,60.3,59.0,96,29.78,10.0,Calm,Calm,-,N/A,,Clear,0,2013-06-30 06:15:00
2:35 AM,59.4,58.6,97,29.78,10.0,Calm,Calm,-,N/A,,Scattered Clouds,0,2013-06-30 06:35:00
2:55 AM,59.7,59.0,97,29.78,10.0,Calm,Calm,-,N/A,,Clear,0,2013-06-30 06:55:00
3:15 AM,59.2,58.1,96,29.78,10.0,Calm,Calm,-,N/A,,Clear,0,2013-06-30 07:15:00
3:35 AM,58.8,58.1,97,29.77,10.0,Calm,Calm,-,N/A,,Clear,0,2013-06-30 07:35:00
3:55 AM,58.6,57.7,97,29.77,10.0,West,3.5,-,N/A,,Clear,280,2013-06-30 07:55:00
4:15 AM,58.5,57.7,97,29.77,10.0,Calm,Calm,-,N/A,,Clear,0,2013-06-30 08:15:00
4:35 AM,58.1,57.4,97,29.77,10.0,Calm,Calm,-,N/A,,Clear,0,2013-06-30 08:35:00
4:55 AM,58.3,57.2,96,29.77,10.0,Calm,Calm,-,N/A,,Clear,0,2013-06-30 08:55:00
5:15 AM,58.1,57.2,97,29.78,10.0,Calm,Calm,-,N/A,,Clear,0,2013-06-30 09:15:00
5:35 AM,57.6,57.0,98,29.79,10.0,Calm,Calm,-,N/A,,Clear,0,2013-06-30 09:35:00
5:55 AM,57.2,56.7,98,29.79,7.0,Calm,Calm,-,N/A,,Scattered Clouds,0,2013-06-30 09:55:00
6:15 AM,57.6,56.8,97,29.80,10.0,Calm,Calm,-,N/A,,Scattered Clouds,0,2013-06-30 10:15:00
6:35 AM,57.2,56.5,97,29.80,10.0,Calm,Calm,-,N/A,,Clear,0,2013-06-30 10:35:00
6:55 AM,57.6,56.7,97,29.80,10.0,Calm,Calm,-,N/A,,Scattered Clouds,0,2013-06-30 10:55:00
7:15 AM,58.6,57.2,95,29.81,10.0,Calm,Calm,-,N/A,,Scattered Clouds,0,2013-06-30 11:15:00
7:35 AM,59.2,57.7,95,29.81,10.0,Calm,Calm,-,N/A,,Scattered Clouds,0,2013-06-30 11:35:00
7:55 AM,59.9,58.3,94,29.81,10.0,Calm,Calm,-,N/A,,Scattered Clouds,0,2013-06-30 11:55:00
8:15 AM,61.3,59.2,93,29.81,10.0,Calm,Calm,-,N/A,,Scattered Clouds,0,2013-06-30 12:15:00
8:35 AM,62.8,59.9,90,29.82,10.0,Calm,Calm,-,N/A,,Clear,0,2013-06-30 12:35:00
8:55 AM,65.3,60.3,84,29.82,10.0,Calm,Calm,-,N/A,,Clear,0,2013-06-30 12:55:00
9:15 AM,66.7,61.3,83,29.82,10.0,Calm,Calm,-,N/A,,Clear,0,2013-06-30 13:15:00
9:35 AM,69.1,61.7,77,29.83,10.0,Calm,Calm,-,N/A,,Clear,0,2013-06-30 13:35:00
9:55 AM,70.7,61.9,74,29.82,10.0,Calm,Calm,-,N/A,,Clear,0,2013-06-30 13:55:00
10:15 AM,72.9,62.2,69,29.81,10.0,Calm,Calm,-,N/A,,Clear,0,2013-06-30 14:15:00
10:35 AM,74.8,61.5,63,29.81,10.0,Calm,Calm,-,N/A,,Clear,0,2013-06-30 14:35:00
10:55 AM,75.6,62.1,63,29.81,10.0,Calm,Calm,-,N/A,,Scattered Clouds,0,2013-06-30 14:55:00
11:15 AM,77.7,61.2,57,29.81,10.0,Calm,Calm,-,N/A,,Scattered Clouds,0,2013-06-30 15:15:00
11:35 AM,77.9,61.7,57,29.81,10.0,Calm,Calm,-,N/A,,Clear,0,2013-06-30 15:35:00
11:55 AM,79.3,61.9,55,29.82,10.0,West,5.8,-,N/A,,Scattered Clouds,280,2013-06-30 15:55:00
12:15 PM,79.5,61.0,53,29.81,10.0,West,5.8,-,N/A,,Scattered Clouds,280,2013-06-30 16:15:00
12:35 PM,79.9,61.9,54,29.81,10.0,WSW,5.8,-,N/A,,Scattered Clouds,240,2013-06-30 16:35:00
12:55 PM,80.8,59.4,48,29.81,10.0,West,6.9,-,N/A,,Scattered Clouds,270,2013-06-30 16:55:00
1:15 PM,81.1,59.0,47,29.81,10.0,West,9.2,-,N/A,,Scattered Clouds,260,2013-06-30 17:15:00
1:35 PM,80.8,58.6,47,29.80,10.0,WSW,6.9,-,N/A,,Scattered Clouds,250,2013-06-30 17:35:00
1:55 PM,79.5,58.3,48,29.80,10.0,West,5.8,-,N/A,,Scattered Clouds,260,2013-06-30 17:55:00
2:15 PM,80.2,59.5,49,29.79,10.0,West,4.6,-,N/A,,Mostly Cloudy,260,2013-06-30 18:15:00
2:35 PM,81.7,59.2,46,29.78,10.0,SW,4.6,-,N/A,,Mostly Cloudy,230,2013-06-30 18:35:00
2:55 PM,82.2,57.9,43,29.77,10.0,WSW,8.1,-,N/A,,Mostly Cloudy,240,2013-06-30 18:55:00
3:15 PM,81.0,57.9,45,29.77,10.0,SSW,3.5,-,N/A,,Scattered Clouds,210,2013-06-30 19:15:00
3:35 PM,80.8,59.4,48,29.77,10.0,SW,10.4,-,N/A,,Mostly Cloudy,220,2013-06-30 19:35:00
3:55 PM,81.9,59.0,46,29.78,10.0,WSW,6.9,-,N/A,,Scattered Clouds,250,2013-06-30 19:55:00
4:15 PM,83.8,57.6,41,29.77,10.0,West,10.4,-,N/A,,Scattered Clouds,260,2013-06-30 20:15:00
4:35 PM,83.7,59.2,43,29.78,10.0,West,9.2,-,N/A,,Mostly Cloudy,260,2013-06-30 20:35:00
4:55 PM,81.7,57.0,43,29.77,10.0,Calm,Calm,-,N/A,,Scattered Clouds,0,2013-06-30 20:55:00
5:15 PM,82.4,58.5,44,29.77,10.0,WSW,6.9,-,N/A,,Clear,250,2013-06-30 21:15:00
5:35 PM,82.4,56.3,41,29.77,10.0,SW,3.5,-,N/A,,Clear,220,2013-06-30 21:35:00
5:55 PM,81.3,58.8,46,29.77,10.0,SW,3.5,-,N/A,,Clear,220,2013-06-30 21:55:00
6:15 PM,81.7,57.7,44,29.77,10.0,WSW,3.5,-,N/A,,Clear,250,2013-06-30 22:15:00
6:35 PM,79.9,59.4,49,29.78,10.0,Calm,Calm,-,N/A,,Clear,0,2013-06-30 22:35:00
6:55 PM,79.7,61.9,54,29.78,10.0,Calm,Calm,-,N/A,,Clear,0,2013-06-30 22:55:00
7:15 PM,77.9,62.8,60,29.78,10.0,Calm,Calm,-,N/A,,Clear,0,2013-06-30 23:15:00
7:35 PM,75.2,65.8,73,29.79,10.0,Calm,Calm,-,N/A,,Clear,0,2013-06-30 23:35:00
7:55 PM,75.2,63.3,66,29.79,10.0,WNW,3.5,-,N/A,,Clear,290,2013-06-30 23:55:00
8:15 PM,74.5,64.0,70,29.80,10.0,Calm,Calm,-,N/A,,Clear,0,2013-07-01 00:15:00
8:35 PM,72.7,64.2,75,29.80,10.0,Calm,Calm,-,N/A,,Clear,0,2013-07-01 00:35:00
8:55 PM,71.4,63.9,77,29.80,10.0,Calm,Calm,-,N/A,,Clear,0,2013-07-01 00:55:00
9:15 PM,70.2,63.9,80,29.81,10.0,WNW,4.6,-,N/A,,Clear,290,2013-07-01 01:15:00
9:35 PM,69.4,64.4,84,29.82,10.0,NW,3.5,-,N/A,,Clear,320,2013-07-01 01:35:00
9:55 PM,68.7,63.0,82,29.83,10.0,Calm,Calm,-,N/A,,Clear,0,2013-07-01 01:55:00
10:15 PM,67.5,65.3,93,29.84,10.0,Calm,Calm,-,N/A,,Clear,0,2013-07-01 02:15:00
10:35 PM,67.1,63.3,88,29.85,10.0,Calm,Calm,-,N/A,,Clear,0,2013-07-01 02:35:00
10:55 PM,66.7,63.5,89,29.85,10.0,Calm,Calm,-,N/A,,Scattered Clouds,0,2013-07-01 02:55:00
11:15 PM,66.7,64.2,92,29.86,10.0,Calm,Calm,-,N/A,,Scattered Clouds,0,2013-07-01 03:15:00
11:35 PM,66.6,63.5,90,29.86,10.0,Calm,Calm,-,N/A,,Clear,0,2013-07-01 03:35:00
11:55 PM,66.0,64.0,93,29.85,10.0,South,3.5,-,N/A,,Scattered Clouds,190,2013-07-01 03:55:00